Home   Weather   Ganja   Past weeks
Flag for Azerbaijan

Past Weather in Ganja, Azerbaijan — Yesterday and Last 2 Weeks

Now
61 °F

Scattered clouds.


Feels Like: 61 °F
Forecast: 75 / 57 °F
Wind: 5 mph from West

Location: Gyanca Airport

Current Time: Oct 18, 2019 at 10:18:43 am

Latest Report: Oct 18, 2019 at 9:30 am


Visibility: N/A

Pressure: 30.15 "Hg

Humidity: 68%

Dew Point: 50 °F

Location of GanjaLocation

Past Weather in Ganja — Graph

°F

Ganja Temperature Yesterday

Maximum temperature yesterday: 72 °F (at 4:00 pm)
Minimum temperature yesterday: 54 °F (at 5:00 am)
Average temperature yesterday: 61 °F

High & Low Weather Summary for the Past Weeks

 TemperatureHumidityPressure
High82 °F (Oct 9, 2:00 pm)100% (Oct 10, 4:30 am)30.45 "Hg (Oct 10, 4:30 am)
Low52 °F (Oct 13, 7:30 am)28% (Oct 7, 3:00 pm)29.56 "Hg (Oct 6, 5:30 pm)
Average66 °F63%30.10 "Hg
* Reported Oct 3 9:00 am — Oct 18 9:00 am, Ganja. Weather by CustomWeather, © 2019

Note: Actual official high and low records may vary slightly from our data, if they occured in-between our weather recording intervals... More about our weather records

Advertising

Ganja Weather History for the Previous 24 Hours

Scroll right to see more
 ConditionsComfort  
Time TempWeatherWind HumidityBarometerVisibility
9:00 am
Fri, Oct 18
61 °FScattered clouds.5 mph68%30.15 "HgN/A
8:30 am59 °FScattered clouds.7 mph72%30.15 "HgN/A
8:00 am55 °FPassing clouds.5 mph77%30.15 "HgN/A
7:30 am54 °FPassing clouds.5 mph82%30.15 "HgN/A
7:00 am54 °FPassing clouds.2 mph82%30.15 "Hg4 mi
6:30 am54 °FPassing clouds.2 mph88%30.15 "Hg4 mi
6:00 am54 °FPassing clouds.5 mph88%30.15 "Hg4 mi
5:30 am54 °FPassing clouds.5 mph88%30.15 "Hg4 mi
5:00 am55 °FPassing clouds.7 mph82%30.15 "Hg4 mi
4:30 am55 °FPassing clouds.5 mph88%30.15 "Hg4 mi
4:00 am55 °FPassing clouds.5 mph88%30.15 "Hg4 mi
3:30 am55 °FPassing clouds.5 mph88%30.18 "Hg4 mi
3:00 am55 °FPassing clouds.5 mph88%30.18 "Hg4 mi
2:30 am57 °FPassing clouds.5 mph82%30.18 "Hg4 mi
2:00 am57 °FPassing clouds.5 mph82%30.18 "Hg4 mi
1:30 am57 °FPassing clouds.7 mph82%30.18 "Hg4 mi
1:00 am57 °FPassing clouds.7 mph82%30.18 "Hg4 mi
12:30 am57 °FPassing clouds.7 mph88%30.18 "Hg4 mi
12:00 am59 °FPassing clouds.7 mph82%30.18 "Hg4 mi
11:30 pm
Thu, Oct 17
57 °FPassing clouds.5 mph82%30.18 "Hg4 mi
11:00 pm57 °FPassing clouds.5 mph82%30.18 "Hg4 mi
10:30 pm59 °FPassing clouds.No wind77%30.18 "Hg4 mi
10:00 pm59 °FPassing clouds.2 mph77%30.18 "Hg4 mi
9:30 pm61 °FPassing clouds.2 mph77%30.18 "HgN/A
9:00 pm61 °FPassing clouds.5 mph77%30.18 "HgN/A
8:30 pm63 °FPassing clouds.5 mph77%30.18 "HgN/A
6:30 pm66 °FPassing clouds.7 mph73%30.15 "HgN/A
6:00 pm68 °FPassing clouds.9 mph69%30.15 "HgN/A
5:30 pm70 °FPassing clouds.9 mph60%30.15 "HgN/A
5:00 pm70 °FPassing clouds.7 mph60%30.15 "HgN/A
4:30 pm72 °FPassing clouds.5 mph57%30.15 "HgN/A
4:00 pm72 °FPassing clouds.5 mph57%30.15 "HgN/A
3:30 pm70 °FPassing clouds.2 mph60%30.18 "HgN/A
3:00 pm70 °FPassing clouds.7 mph60%30.18 "HgN/A
2:30 pm68 °FPassing clouds.5 mph64%30.18 "HgN/A
2:00 pm68 °FPassing clouds.5 mph64%30.18 "HgN/A
1:30 pm66 °FScattered clouds.5 mph68%30.21 "HgN/A
1:00 pm66 °FScattered clouds.5 mph68%30.21 "HgN/A
12:30 pm66 °FScattered clouds.7 mph68%30.21 "HgN/A
12:00 pm64 °FBroken clouds.7 mph73%30.24 "HgN/A
11:30 am63 °FBroken clouds.7 mph77%30.24 "HgN/A
11:00 am63 °FBroken clouds.5 mph77%30.24 "HgN/A
10:30 am64 °FBroken clouds.5 mph73%30.24 "HgN/A
10:00 am63 °FBroken clouds.2 mph77%30.24 "HgN/A
Weather by CustomWeather, © 2019

See weather overview